Regional Weather Roundup
Issued by NWS Cleveland, OH

Home | Current Version | Previous Version | Graphics & Text | Print | Product List | Glossary On
Versions: 1 2 3 4 5 6 7 8 9 10 11 12 13 14 15 16 17 18 19 20 21 22 23 24 25 26 27 28 29 30 31 32 33 34 35 36 37 38 39 40 41 42 43 44 45 46 47 48 49 50
000
ASUS41 KCLE 021700
RWRCLE
OHIO REGIONAL WEATHER ROUNDUP
NATIONAL WEATHER SERVICE WILMINGTON, OH
1200 PM EST MON MAR 02 2015

NOTE: "FAIR" INDICATES FEW OR NO CLOUDS BELOW 12,000 FEET WITH NO
SIGNIFICANT WEATHER AND/OR OBSTRUCTIONS TO VISIBILITY.

OHZ001>008-015>018-024>027-034-035-043-044-021800-
   NORTHWEST OHIO

CITY           SKY/WX    TMP DP  RH WIND       PRES   REMARKS
DEFIANCE       SUNNY     24  14  65 SW7       30.51R WCI  16
FINDLAY        SUNNY     21  13  71 W10       30.49R WCI  10
TOLEDO EXPRESS SUNNY     25  14  63 W10       30.48R WCI  15
TOLEDO EXEC    SUNNY     23  14  68 SW8       30.49R WCI  14
LIMA           SUNNY     22  13  68 W8        30.49S WCI  12
$$

OHZ009>014-019>023-028>033-038-089-021800-
   NORTHEAST OHIO

CITY           SKY/WX    TMP DP  RH WIND       PRES   REMARKS
CLE-HOPKINS    MOSUNNY   26  13  57 VRB6      30.48R WCI  19
CLE-LAKEFRONT  SUNNY     23  15  71 W16       30.47R WCI  10
CUY CO. ARPT   MOSUNNY   27  18  69 W12G21    30.46R WCI  16
LORAIN-ELYRIA  SUNNY     25  13  60 NW9       30.46R WCI  15
ASHTABULA      PTSUNNY   24  11  57 NW13      30.42R WCI  12
AKRON-CANTON   PTSUNNY   25  15  66 W10       30.43R WCI  15
WOOSTER        NOT AVBL
MANSFIELD      SUNNY     24  12  60 W9        30.45R WCI  14
YOUNGSTOWN     PTSUNNY   26  11  52 W13G18    30.40R WCI  15
$$

OHZ042-051>053-060>062-070>072-077>081-021800-
  SOUTHWEST OHIO

CITY           SKY/WX    TMP DP  RH WIND       PRES   REMARKS
CINC-COVINGTON PTSUNNY   29  17  61 CALM      30.52S
CINC-LUNKEN    MOSUNNY   28  15  58 CALM      30.56F
HAMILTON       MOSUNNY   29  16  58 VRB3      30.56S
DAYTON         NOT AVBL
WRIGHT-PAT AFB SUNNY     26  14  59 NW5       30.53R WCI  21
DAYTON GENERAL MOSUNNY   27  14  58 CALM      30.50F
WILMINGTON     MOSUNNY   26  13  57 NE3       30.51S
$$

OHZ036-037-039>041-045>050-054>059-063>069-073>076-082>088-021800-
  CENTRAL AND SOUTHEAST OHIO

CITY           SKY/WX    TMP DP  RH WIND       PRES   REMARKS
COLUMBUS       PTSUNNY   26  14  60 W5        30.51R WCI  20
OSU AIRPORT    SUNNY     24  14  65 W5        30.50S WCI  18
BOLTON FIELD   NOT AVBL
RICKENBACK AFB NOT AVBL
NEWARK         SUNNY     27  14  58 NW5       30.49S WCI  22
MARION         SUNNY     23  13  65 W9        30.49R WCI  13
LANCASTER      MOSUNNY   26  17  68 VRB3      30.52R
ZANESVILLE     MOSUNNY   26  15  63 W6        30.49R WCI  19
NEW PHILLY     CLOUDY    26  14  60 NW7       30.48R WCI  18
$$


USA.gov is the U.S. government's official web portal to all federal, state and local government web resources and services.